Location: ???
(60.6398°N, 46.9067°E)
Time: 18:57:09
(UTC+00:00)

Cosmos 1441 Rocket - Pass Details

Date: 08 December 2019
Orbit: 496 x 542 km, 81.1° (Epoch: 17 January)

Event Time Altitude Azimuth Distance (km) Brightness Sun altitude
Rises 15:21:20 0° 340° (NNW) 2,677 7.0 -24.2°
Reaches altitude 10° 15:23:33 10° 334° (NNW) 1,775 6.2 -24.5°
Maximum altitude 15:27:17 46° 261° (W) 708 4.2 -24.9°
Enters shadow 15:30:55 10° 188° (S) 1,720 5.9 -25.4°
